Погода в Хворостянке

Россия / Самарская область     52°36′55″N   48°57′53″E
темп.,
°C
ветер,
м/с
пор.,
м/с
влажн.,
%
обл.,
%
осадки,
мм/ч
давл.,
гПа
погр.,
м
17 мая, пн
пн1701:00+20юв4124928 0.0 1016215
04:00+19ююв4125388 0.0 1017183
07:00+22ю385391 0.0 1017185
10:00+28ю45315 0.0 1017502
13:00+31ююв56235 0.0 10171996
16:00+31ююв55185 0.0 10173410
19:00+27ююв47355 0.0 1016154
22:00+22юв33382 0.0 101726
18 мая, вт
вт1801:00+20юв33360 0.0 101624
04:00+19вюв34362 0.0 101631
07:00+20в38440 0.0 1017184
10:00+28юв57290 0.0 1016540
13:00+31юв55230 0.0 10161688
16:00+32юв45185 0.0 10153715
19:00+28вюв333258 0.0 101548
22:00+22всв34395 0.0 101540
19 мая, ср
ср1901:00+21вюв48382 0.0 1014112
04:00+19в511445 0.0 1014168
07:00+20в612600 0.0 1015353
10:00+26в79465 0.0 1014804
13:00+29в78355 0.0 10141822
16:00+29в78290 0.0 10132493
19:00+26в712410 0.0 1013508
22:00+22вюв816480 0.0 1014601
20 мая, чт
чт2001:00+20вюв816520 0.0 1015634
04:00+17вюв715590 0.0 1015478
07:00+18вюв816610 0.0 1015587
10:00+22юв911502 0.0 10151039
13:00+25ююв79448 0.0 10161944
16:00+26юв79335 0.0 10152713
19:00+23юв6104020 0.0 1015519
22:00+16зсз128146 0.0 101614
21 мая, пт
пт2101:00+17зсз017896 0.0 101615
04:00+15в227547 0.0 101613
07:00+17юв3655100 0.0 1016210
10:00+22юв674253 0.0 10171074
13:00+25ююв44312 0.0 10172517
16:00+26ю34295 0.0 10162680
19:00+23з574999 0.0 1017373
22:00+19з2260100 0.0 101814